Location: Калининград
(54.7101°N, 20.5106°E)
Time: 23:39:20
(UTC+02:00)

ISS - Visible Passes

Search period start: 25 September 2022 00:00
Search period end: 05 October 2022 00:00
Orbit: 414 x 417 km, 51.6° (Epoch: 25 September)

Date Brightness Start Highest point End Pass type
(mag) Time Alt. Az. Time Alt. Az. Time Alt. Az.
25 Sep -3.1 20:35:05 10° W 20:38:16 41° SSW 20:38:20 41° S visible
26 Sep -3.2 19:46:27 10° W 19:49:42 46° S 19:51:30 23° SE visible
26 Sep -1.2 21:23:17 10° W 21:24:22 16° WSW 21:24:22 16° WSW visible
27 Sep -3.2 18:57:50 10° W 19:01:06 50° S 19:04:23 10° ESE visible
27 Sep -2.4 20:34:30 10° W 20:37:28 29° SSW 20:37:32 29° SSW visible
28 Sep -2.7 19:45:47 10° W 19:48:55 35° SSW 19:50:42 20° SE visible
28 Sep -0.8 21:23:20 10° WSW 21:23:34 11° WSW 21:23:34 11° WSW visible
29 Sep -2.9 18:57:06 10° W 19:00:18 42° SSW 19:03:30 10° ESE visible
29 Sep -1.6 20:34:08 10° WSW 20:36:29 18° SSW 20:36:46 18° SSW visible
30 Sep -1.9 19:45:12 10° W 19:47:57 23° SSW 19:49:59 14° SSE visible
01 Oct -2.2 18:56:23 10° W 18:59:22 30° SSW 19:02:21 10° SE visible
02 Oct -1.1 19:45:01 10° WSW 19:46:48 14° SW 19:48:35 10° S visible
03 Oct -1.3 18:55:48 10° WSW 18:58:14 19° SSW 19:00:41 10° SSE visible
